Weather History for KEDW - January, 2013

Change the Weather History Date:

Monday, January 14, 2013

  Actual Average Record
Temperature  
Mean Temperature 24 °F -  
Max Temperature 38 °F 58 °F 69 °F (2002)
Min Temperature 11 °F 31 °F 7 °F (2007)
Degree Days  
Heating Degree Days 40    
Moisture  
Dew Point -4 °F    
Average Humidity 30    
Maximum Humidity 48    
Minimum Humidity 17    
Precipitation  
Precipitation 0.00 in - - ()
Sea Level Pressure  
Sea Level Pressure 30.37 in    
Wind  
Wind Speed 4 mph (NNE)    
Max Wind Speed 6 mph    
Max Gust Speed -    
Visibility 10 miles    
Events      
Averages and records for this station are not official NWS values.
T = Trace of Precipitation, MM = Missing Value Source: NWS Daily Summary

Daily Weather History Graph

Daily Weather History Graph

Search for Another Location

Airport or City:

Trip Planner

Search our weather history database for the weather conditions in past years. The results will help you decide how hot, cold, wet, or windy it might be!

Date:

Astronomy

Jan. 14, 2013 Rise Set
Actual Time 6:58 AM PST 5:02 PM PST
Civil Twilight 6:31 AM PST 5:30 PM PST
Nautical Twilight 6:00 AM PST 6:01 PM PST
Astronomical Twilight 5:30 AM PST 6:31 PM PST
Moon 8:44 AM PST (1/14) 8:42 PM PST (1/14)
Length of Visible Light 10h 58m
Length of Day
10h 03m
Waxing Crescent, 12% of the Moon is Illuminated
Jan 14
Waxing Crescent
Jan 18
First Quarter
Jan 26
Full
Feb 3
Last Quarter
Feb 9
New

Hourly Weather History & Observations

Time (PST) Temp. Windchill Dew Point Humidity Pressure Visibility Wind Dir Wind Speed Gust Speed Precip Events Conditions
12:58 AM 20.7 °F 13.0 °F -1.1 °F 39% 30.26 in 10.0 mi North 5.8 mph - N/A   Clear
1:58 AM 21.7 °F 15.5 °F -0.8 °F 37% 30.28 in 10.0 mi East 4.6 mph - N/A   Clear
2:58 AM 18.9 °F - -2.0 °F 40% 30.28 in 10.0 mi ESE 2.3 mph - N/A   Clear
3:58 AM 18.1 °F 10.0 °F -2.4 °F 40% 30.28 in 10.0 mi East 5.8 mph - N/A   Clear
4:58 AM 19.2 °F 12.5 °F -2.2 °F 39% 30.29 in 10.0 mi NE 4.6 mph - N/A   Clear
5:58 AM 17.6 °F - -2.7 °F 41% 30.32 in 50.0 mi East 2.3 mph - N/A   Clear
6:58 AM 11.8 °F - -4.5 °F 48% 30.36 in 90.0 mi WNW 2.3 mph - N/A   Partly Cloudy
7:58 AM 14.5 °F - -5.1 °F 42% 30.41 in 90.0 mi WNW 1.2 mph - N/A   Partly Cloudy
8:58 AM 19.8 °F - -2.9 °F 37% 30.42 in 90.0 mi NE 1.2 mph - N/A   Partly Cloudy
9:58 AM 25.7 °F - -0.9 °F 32% 30.41 in 90.0 mi ENE 2.3 mph - N/A   Partly Cloudy
10:58 AM 30.6 °F - -2.2 °F 24% 30.40 in 90.0 mi North 2.3 mph - N/A   Partly Cloudy
11:58 AM 32.5 °F - -2.4 °F 22% 30.38 in 90.0 mi North 2.3 mph - N/A   Partly Cloudy
12:58 PM 34.5 °F 31.6 °F -2.6 °F 21% 30.35 in 90.0 mi Variable 3.5 mph - N/A   Partly Cloudy
1:58 PM 36.1 °F 33.5 °F -2.4 °F 19% 30.35 in 90.0 mi North 3.5 mph - N/A   Partly Cloudy
2:58 PM 37.4 °F 34.9 °F -2.4 °F 19% 30.35 in 90.0 mi North 3.5 mph - N/A   Scattered Clouds
3:58 PM 38.7 °F - -3.3 °F 17% 30.35 in 90.0 mi SSW 1.2 mph - N/A   Partly Cloudy
4:58 PM 36.9 °F 34.3 °F -2.9 °F 18% 30.36 in 90.0 mi NNW 3.5 mph - N/A   Partly Cloudy
5:58 PM 33.6 °F 30.6 °F -3.5 °F 20% 30.40 in 60.0 mi North 3.5 mph - N/A   Partly Cloudy
6:58 PM 29.1 °F 23.0 °F -4.5 °F 23% 30.43 in 60.0 mi North 5.8 mph - N/A   Clear
7:58 PM 24.6 °F 20.3 °F -6.5 °F 25% 30.44 in 60.0 mi East 3.5 mph - N/A   Clear
8:58 PM 24.4 °F 20.1 °F -6.0 °F 26% 30.44 in 60.0 mi NNE 3.5 mph - N/A   Clear
9:58 PM 23.5 °F - -6.7 °F 26% 30.44 in 60.0 mi Variable 2.3 mph - N/A   Clear
10:58 PM 22.1 °F - -6.9 °F 28% 30.43 in 10.0 mi NE 2.3 mph - N/A   Clear
11:58 PM 20.8 °F - -7.4 °F 29% 30.43 in 10.0 mi Calm Calm - N/A   Clear